Regional Weather Roundup
Issued by NWS

Home | Current Version | Previous Version | Text Only | Print | Product List | Glossary On
Versions: 1 2 3 4 5 6 7 8 9 10 11 12 13 14 15 16 17 18 19 20 21 22 23 24 25 26 27
000
ASUS45 KBOU 171610
RWRCO

WEATHER ROUNDUP FOR COLORADO
NATIONAL WEATHER SERVICE DENVER/BOULDER CO
900 AM MST FRI NOV 17 2017

NOTE: "FAIR" INDICATES FEW OR NO CLOUDS BELOW 12000 FEET WITH NO
SIGNIFICANT WEATHER AND/OR OBSTRUCTIONS TO VISIBILITY.

COZ001>005-013-030-031-171700-
...NORTHWEST COLORADO...

CITY           SKY/WX    TMP DP  RH WIND       PRES   REMARKS
CRAIG          CLOUDY    54  31  41 SW24G38   29.71S
HAYDEN         CLOUDY    52  31  44 SW29G44   29.72S
MEEKER         PTSUNNY   54  32  43 SW16G31   29.76R
RABBIT EARS PA CLOUDY    32  28  86 SW12G24   29.83S WCI  23
STEAMBOAT SPGS CLOUDY    50  30  47 SW9       29.73S
WALDEN         CLOUDY    39  34  81 W7        29.77S
$$

COZ006>008-011-171700-
...WEST CENTRAL VALLEYS...

CITY           SKY/WX    TMP DP  RH WIND       PRES   REMARKS
GRAND JUNCTION PTSUNNY   59  34  39 CALM      29.77F
MONTROSE       FAIR      58  32  37 SW17G33   29.88S
EAGLE          LGT RAIN  46  37  71 NW6       29.82S
RIFLE            N/A    N/A N/A N/A MISG      29.78S
DELTA          CLOUDY    60  31  33 W6        29.85S
NUCLA          PTSUNNY   55  30  38 SW25      29.94S
$$

COZ017>023-064>068-171700-
...SOUTHWEST COLORADO...

CITY           SKY/WX    TMP DP  RH WIND       PRES   REMARKS
DURANGO        PTSUNNY   48  30  49 SW7       30.04R
CORTEZ         FAIR      55  31  39 SW14      30.01R
PAGOSA SPRINGS CLOUDY    46  30  55 SW5       30.07R
TELLURIDE      CLOUDY    45  29  54 SW15G41   30.06F
WOLF CREEK PAS SNOW      27  27 100 SW22G35   30.15R VSB<1/4 WCI  12
$$

COZ009-010-012-014-032>034-037-058>063-171700-
...CENTRAL COLORADO...

CITY           SKY/WX    TMP DP  RH WIND       PRES   REMARKS
ASPEN          LGT RAIN  40  37  89 SE5       29.86F
BUENA VISTA    LGT RAIN  40  37  89 E12       29.87F
COPPER MTN     CLOUDY    34  30  86 MISG      29.95R
BERTHOUD PASS  LGT SNOW  25  14  63 W22G43    29.92R VSB 3/4 WCI  10
COTTONWOOD PAS LGT SNOW  41  36  81 SE6       29.92S
GUNNISON       PTSUNNY   50  30  46 W22G35    29.91S
KREMMLING      FAIR      48  34  57 SW14G23   29.79F
LEADVILLE      SNOW      31  30  96 CALM      29.89S VSB 1/4
MONARCH PASS     N/A     28  28 100 SW49G66   30.01S WCI   9
SALIDA         CLOUDY    45  38  78 SW7       29.96F
SUNLIGHT       CLOUDY    32  28  86 SW20G40   29.93F WCI  20
WILKERSON PASS SNOW      32  30  93 SW15G28   29.95F VSB 1/4 WCI  22
$$

COZ069>075-171700-
...SAN LUIS VALLEY/SANGRE DE CRISTO MOUNTAINS...

CITY           SKY/WX    TMP DP  RH WIND       PRES   REMARKS
ALAMOSA        FAIR      51  34  52 W14G20    29.97F
DEL NORTE      CLOUDY    52  28  40 NW23G30   29.95S
LA VETA PASS   CLOUDY    36  30  80 S32G56      N/A
SAGUACHE       CLOUDY    45  32  61 CALM      29.94F
$$

COZ035-036-038>040-171700-
...NORTHERN COLORADO FRONT RANGE...

CITY           SKY/WX    TMP DP  RH WIND       PRES   REMARKS
DENVER INTL AP PTSUNNY   61  33  35 SW25      29.68R
DMNS CITY PARK   N/A     61  32  33 SW13G18   29.70S
AURORA         PTSUNNY   59  34  38 SW23G30   29.71F
FRONT RANGE AP MOSUNNY   63  32  31 SW21G30   29.69S
ERIE MUNI ARPT FAIR      61  30  31 SW12      29.73S
BOULDER MUN AP FAIR      59  32  36 W5        29.68F
CENTENNIAL     PTSUNNY   59  35  40 SW16G25   29.73S
BROOMFIELD     PTSUNNY   59  32  36 SW12      29.71F
FORT COLLINS   FAIR      59  36  42 SW12      29.65S
LONGMONT       FAIR      61  36  38 W8        29.68F
$$

COZ041-046-047-076>085-087-088-171700-
...PIKES PEAK/PALMER DIVIDE AND SOUTHERN FOOTHILLS...

CITY           SKY/WX    TMP DP  RH WIND       PRES   REMARKS
COLO. SPRINGS  FAIR      61  32  33 SW21      29.79S
A. F. ACADEMY  FAIR      59  29  32 W24G33    29.78S
SCHRIEVER AFB  FAIR      58  30  34 W30G37    29.78S
CHEYENNE MTN   FAIR      54  31  41 SE17G35   29.76S
ELLICOTT         N/A    N/A N/A N/A W29G39    29.76F
FALCON         FAIR      58  28  32 SW20G26   29.82S
FORT CARSON    FAIR      60  33  36 SW28G36   29.77F
LIMON          FAIR      63  31  30 W20G29    29.70S
MONUMENT HILL  FAIR      54  32  43 SW25G31   29.79F
CANON CITY     SUNNY     63  37  39 W13       29.78F
WALSENBURG     FAIR      61  34  36 SW37G47   29.85S
TRINIDAD       FAIR      65  34  31 W31G45    29.80S
$$

COZ042>045-048>051-090-091-171700-
...NORTHEAST COLORADO...

CITY           SKY/WX    TMP DP  RH WIND       PRES   REMARKS
GREELEY ARPT   FAIR      61  35  37 SW17G25   29.66F
AKRON          FAIR      61  28  28 W13       29.67R
BURLINGTON     FAIR      65  31  28 SW15      29.67F
WRAY           NOT AVBL
YUMA           FAIR      59  32  36 W12       29.64F
STERLING       FAIR      50  34  53 W3        29.64S
HOLYOKE        FAIR      46  32  57 NE10      29.65R
FORT MORGAN    FAIR      52  29  42 NE6       29.67R
$$

COZ086-089-092>099-171700-
...SOUTHEAST COLORADO...

CITY           SKY/WX    TMP DP  RH WIND       PRES   REMARKS
PUEBLO         FAIR      64  34  32 W16       29.74F
LA JUNTA       FAIR      68  33  27 W24G36    29.69F
LAMAR          FAIR      67  33  28 W15       29.68S
SPRINGFIELD      N/A     64  33  31 SW12      29.74F
$$




USA.gov is the U.S. government's official web portal to all federal, state and local government web resources and services.